Content
SEND FEEDBACK

Daily
Averages
Monthly
Summary
United States of America

HAMILTON, ALABAMA


Home > North America > United States > Alabama
Elevation: 406 feet     Latitude: 34 07N     Longitude: 087 59W

WEATHER
 
SELECT A DAY
Number of Records: 146,697;   Date Range: 10/31/07 - 11/20/14
 
SHARE

PRINT THIS DATA

[ ← Previous Day ]
WEATHER ALMANAC - FEBRUARY 13, 2013
[ Next Day → ]
[ °C ]   °F
Weather ElementAverageHighLow
Temperature41.2 °F43.9 °F (8:56 am)38.8 °F (6:56 pm)
Dewpoint38.7 °F42.8 °F (3:21 am)34 °F (10:56 pm)
Humidity91 %100 % (12:56 am)79 % (12:56 pm)
Barometer29.89 in30.10 in (10:56 pm)29.74 in (2:41 am)
Wind Speed7.1 mph16.1 mph (5:39 am)
Wind Gust24.2 mph (5:56 am)
Weather ElementAverage
Visibility6.9 mi
Wind DirectionSSW (197.4 °)

Weather ElementTotal
Precipitation0.04 in
Heating Degree Days23.7 (Base 65)
Averaged from 46 records on February 13, 2013
WEATHER CONDITIONS BREAKOUT
WIND DIRECTION BREAKOUT
WEATHER BY HOUR - FEBRUARY 13, 2013
[ °C ]   °F
Local TimeTemperatureDewpointHumidityBarometerVisibilityWind DirectionWind SpeedGust SpeedPrecipitationEventsConditions
12:56 AM41.0 °F41.0 °F100 %29.80 in2.0 miEast (100°)5.8 mphOvercast
1:43 AM41.0 °F41.0 °F100 %29.76 in1.8 miSSE (160°)5.8 mphOvercast
1:56 AM41.0 °F41.0 °F100 %29.81 in1.8 miCalmOvercast
2:41 AM41.0 °F41.0 °F100 %29.74 in2.0 miSSW (210°)4.6 mphOvercast
2:56 AM41.0 °F41.0 °F100 %29.79 in2.0 miSSW (200°)6.9 mphOvercast
3:21 AM42.8 °F42.8 °F100 %29.74 in1.8 miSSW (210°)6.9 mph0.01 inOvercast
3:28 AM42.8 °F42.8 °F100 %29.74 in1.5 miSSW (210°)6.9 mph0.01 inOvercast
3:45 AM42.8 °F42.8 °F100 %29.74 in2.0 miSSW (210°)6.9 mph0.01 inOvercast
3:56 AM41.9 °F41.9 °F100 %29.78 in1.5 miSW (220°)6.9 mph0.01 inOvercast
4:09 AM42.8 °F42.8 °F100 %29.74 in1.2 miSW (220°)5.8 mphOvercast
4:27 AM42.8 °F42.8 °F100 %29.74 in1.5 miSW (220°)6.9 mphOvercast
4:40 AM42.8 °F42.8 °F100 %29.75 in2.5 miSW (230°)8.1 mphOvercast
4:56 AM41.9 °F41.9 °F100 %29.80 in2.0 miSW (220°)10.4 mphOvercast
5:08 AM42.8 °F42.8 °F100 %29.75 in1.5 miWSW (240°)9.2 mph17.3 mphOvercast
5:31 AM42.8 °F42.8 °F100 %29.77 in2.5 miWSW (240°)13.8 mph18.4 mphOvercast
5:39 AM42.8 °F42.8 °F100 %29.78 in3.0 miWSW (250°)16.1 mph21.9 mphOvercast
5:56 AM41.9 °F41.9 °F100 %29.83 in4.0 miWSW (250°)15.0 mph24.2 mph0.00 inOvercast
6:06 AM42.8 °F42.8 °F100 %29.80 in4.0 miWSW (250°)12.7 mph24.2 mphOvercast
6:56 AM41.9 °F41.0 °F97 %29.86 in10.0 miWest (260°)13.8 mph20.7 mph0.00 inOvercast
7:41 AM42.8 °F39.2 °F87 %29.82 in10.0 miWest (260°)10.4 mphOvercast
7:56 AM41.9 °F39.9 °F93 %29.88 in10.0 miWest (260°)11.5 mphOvercast
8:30 AM42.8 °F39.2 °F87 %29.86 in10.0 miWest (270°)9.2 mphOvercast
8:56 AM43.9 °F39.9 °F86 %29.89 in10.0 miWest (270°)11.5 mph16.1 mphMostly Cloudy
9:56 AM43.0 °F39.9 °F89 %29.91 in10.0 miWest (260°)8.1 mph17.3 mphOvercast
10:56 AM41.9 °F37.9 °F86 %29.94 in10.0 miWNW (290°)9.2 mph17.3 mphOvercast
11:20 AM42.8 °F37.4 °F81 %29.90 in10.0 miVariable6.9 mphOvercast
11:56 AM41.9 °F36.9 °F82 %29.95 in10.0 miNW (320°)10.4 mph17.3 mphOvercast
12:09 PM41.0 °F37.4 °F87 %29.92 in10.0 miNW (320°)11.5 mphOvercast
12:56 PM41.9 °F36.0 °F79 %29.95 in10.0 miWNW (290°)9.2 mph16.1 mphOvercast
1:13 PM41.0 °F35.6 °F81 %29.91 in10.0 miNW (320°)12.7 mph17.3 mphOvercast
1:27 PM41.0 °F35.6 °F81 %29.92 in10.0 miNW (320°)11.5 mphOvercast
1:56 PM39.9 °F34.9 °F82 %29.98 in10.0 miNNW (330°)9.2 mphOvercast
2:14 PM39.2 °F35.6 °F87 %29.94 in10.0 miNNW (330°)8.1 mphOvercast
2:34 PM39.2 °F35.6 °F87 %29.95 in10.0 miNNW (330°)9.2 mphOvercast
2:56 PM39.9 °F34.9 °F82 %29.99 in10.0 miNW (320°)8.1 mphOvercast
3:56 PM39.9 °F34.9 °F82 %30.01 in10.0 miNorth (350°)4.6 mphOvercast
4:56 PM39.9 °F34.9 °F82 %30.02 in10.0 miNNW (340°)4.6 mphOvercast
5:13 PM41.0 °F35.6 °F81 %29.98 in10.0 miCalmOvercast
5:39 PM39.2 °F35.6 °F87 %29.99 in10.0 miCalmMostly Cloudy
5:56 PM39.9 °F34.9 °F82 %30.03 in10.0 miCalmOvercast
6:56 PM38.8 °F34.9 °F86 %30.04 in10.0 miCalmOvercast
7:56 PM38.8 °F34.9 °F86 %30.06 in10.0 miCalmOvercast
8:56 PM38.8 °F36.0 °F89 %30.08 in9.0 miCalmOvercast
9:56 PM38.8 °F34.9 °F86 %30.09 in9.0 miCalmOvercast
10:56 PM38.8 °F34.0 °F83 %30.10 in10.0 miCalmOvercast
11:56 PM38.8 °F34.9 °F86 %30.10 in9.0 miCalmOvercast
Hourly data recorded from K1M4, located miles away from Hamilton, Alabama







STORIES FROM OUR PARTNERS